| time (UTC) | temp F | wind direction | speed MPH | gust MPH | rain 1hr in | rain 24hr in | rain mn in | humidity % | barometer mb |
| 20260906175915 | 97 | 44 | 3.0 | 8.0 | 0.00 | 0.00 | 0.00 | 40 | 1015.4 |
| 20260906175410 | 96 | 43 | 5.0 | 10.0 | 0.00 | 0.00 | 0.00 | 41 | 1015.6 |
| 20260906174908 | 97 | 26 | 8.0 | 9.0 | 0.00 | 0.00 | 0.00 | 39 | 1015.7 |
| 20260906174408 | 97 | 19 | 6.0 | 12.0 | 0.00 | 0.00 | 0.00 | 40 | 1015.7 |
| 20260906173903 | 98 | 334 | 5.0 | 5.0 | 0.00 | 0.00 | 0.00 | 38 | 1016.0 |
| 20260906173359 | 97 | 28 | 5.0 | 10.0 | 0.00 | 0.00 | 0.00 | 39 | 1015.9 |
| 20260906172858 | 97 | 144 | 4.0 | 9.0 | 0.00 | 0.00 | 0.00 | 40 | 1016.0 |
| 20260906172355 | 96 | 76 | 4.0 | 13.0 | 0.00 | 0.00 | 0.00 | 40 | 1016.1 |
| 20260906171854 | 97 | 47 | 10.0 | 14.0 | 0.00 | 0.00 | 0.00 | 39 | 1016.1 |
| 20260906171349 | 98 | 48 | 9.0 | 15.0 | 0.00 | 0.00 | 0.00 | 39 | 1016.1 |
| 20260906170845 | 100 | 11 | 8.0 | 8.0 | 0.00 | 0.00 | 0.00 | 37 | 1016.4 |
| 20260906170341 | 101 | 29 | 2.0 | 4.0 | 0.00 | 0.00 | 0.00 | 37 | 1016.2 |
| 20260906165837 | 101 | 13 | 2.0 | 4.0 | 0.00 | 0.00 | 0.00 | 39 | 1016.5 |
| 20260906165336 | 102 | 25 | 4.0 | 5.0 | 0.00 | 0.00 | 0.00 | 37 | 1016.5 |
| 20260906164831 | 100 | 6 | 2.0 | 6.0 | 0.00 | 0.00 | 0.00 | 39 | 1016.5 |
| 20260906164331 | 98 | 65 | 2.0 | 5.0 | 0.00 | 0.00 | 0.00 | 40 | 1016.5 |
| 20260906163827 | 98 | 22 | 9.0 | 9.0 | 0.00 | 0.00 | 0.00 | 41 | 1016.6 |
| 20260906163323 | 98 | 296 | 1.0 | 6.0 | 0.00 | 0.00 | 0.00 | 40 | 1016.7 |
| 20260906162820 | 98 | 51 | 5.0 | 6.0 | 0.00 | 0.00 | 0.00 | 41 | 1016.8 |
| 20260906162319 | 98 | 15 | 3.0 | 4.0 | 0.00 | 0.00 | 0.00 | 41 | 1016.8 |
| 20260906161814 | 97 | 24 | 4.0 | 9.0 | 0.00 | 0.00 | 0.00 | 42 | 1016.8 |
| 20260906161314 | 98 | 318 | 4.0 | 9.0 | 0.00 | 0.00 | 0.00 | 41 | 1016.8 |
| 20260906160813 | 100 | 279 | 3.0 | 3.0 | 0.00 | 0.00 | 0.00 | 40 | 1016.8 |
| 20260906160307 | 100 | 162 | 2.0 | 5.0 | 0.00 | 0.00 | 0.00 | 40 | 1017.0 |
| 20260906155805 | 99 | 107 | 2.0 | 3.0 | 0.00 | 0.00 | 0.00 | 41 | 1016.9 |
| 20260906155259 | 96 | 133 | 3.0 | 6.0 | 0.00 | 0.00 | 0.00 | 44 | 1016.8 |
| 20260906154755 | 96 | 79 | 2.0 | 5.0 | 0.00 | 0.00 | 0.00 | 44 | 1016.9 |
| 20260906154250 | 97 | 73 | 2.0 | 4.0 | 0.00 | 0.00 | 0.00 | 43 | 1016.7 |
| 20260906153749 | 96 | 133 | 4.0 | 5.0 | 0.00 | 0.00 | 0.00 | 44 | 1016.7 |
| 20260906153243 | 96 | 104 | 5.0 | 5.0 | 0.00 | 0.00 | 0.00 | 44 | 1016.8 |
| 20260906152739 | 95 | 28 | 6.0 | 6.0 | 0.00 | 0.00 | 0.00 | 45 | 1016.9 |
| 20260906152239 | 95 | 197 | 2.0 | 4.0 | 0.00 | 0.00 | 0.00 | 46 | 1016.6 |
| 20260906151738 | 94 | 191 | 3.0 | 6.0 | 0.00 | 0.00 | 0.00 | 46 | 1016.7 |
| 20260906151234 | 96 | 221 | 3.0 | 3.0 | 0.00 | 0.00 | 0.00 | 45 | 1016.8 |
| 20260906150729 | 94 | 299 | 4.0 | 5.0 | 0.00 | 0.00 | 0.00 | 48 | 1016.7 |
| 20260906150225 | 93 | 233 | 10.0 | 11.0 | 0.00 | 0.00 | 0.00 | 49 | 1016.7 |
| 20260906145723 | 94 | 222 | 7.0 | 8.0 | 0.00 | 0.00 | 0.00 | 48 | 1016.7 |
| 20260906145223 | 93 | 214 | 2.0 | 3.0 | 0.00 | 0.00 | 0.00 | 50 | 1016.8 |
| 20260906144718 | 92 | 276 | 2.0 | 4.0 | 0.00 | 0.00 | 0.00 | 52 | 1016.6 |
| 20260906144213 | 90 | 265 | 4.0 | 10.0 | 0.00 | 0.00 | 0.00 | 54 | 1016.7 |
| 20260906143712 | 90 | 265 | 9.0 | 9.0 | 0.00 | 0.00 | 0.00 | 54 | 1016.8 |
| 20260906143210 | 90 | 262 | 8.0 | 9.0 | 0.00 | 0.00 | 0.00 | 54 | 1016.7 |
| 20260906142709 | 89 | 260 | 6.0 | 9.0 | 0.00 | 0.00 | 0.00 | 55 | 1016.7 |
| 20260906142204 | 89 | 219 | 5.0 | 6.0 | 0.00 | 0.00 | 0.00 | 55 | 1016.7 |
| 20260906141703 | 89 | 220 | 5.0 | 8.0 | 0.00 | 0.00 | 0.00 | 55 | 1016.7 |
| 20260906141158 | 89 | 236 | 4.0 | 6.0 | 0.00 | 0.00 | 0.00 | 55 | 1016.7 |
| 20260906140657 | 88 | 179 | 4.0 | 6.0 | 0.00 | 0.00 | 0.00 | 56 | 1016.6 |
| 20260906140152 | 87 | 198 | 4.0 | 7.0 | 0.00 | 0.00 | 0.00 | 57 | 1016.5 |
| 20260906135649 | 87 | 250 | 4.0 | 8.0 | 0.00 | 0.00 | 0.00 | 58 | 1016.6 |
| 20260906135145 | 87 | 243 | 6.0 | 6.0 | 0.00 | 0.00 | 0.00 | 57 | 1016.6 |
| 20260906134640 | 86 | 161 | 3.0 | 4.0 | 0.00 | 0.00 | 0.00 | 59 | 1016.5 |
| 20260906134135 | 87 | 208 | 4.0 | 4.0 | 0.00 | 0.00 | 0.00 | 57 | 1016.4 |
| 20260906133631 | 86 | 229 | 3.0 | 4.0 | 0.00 | 0.00 | 0.00 | 60 | 1016.4 |
| 20260906133126 | 84 | 174 | 3.0 | 5.0 | 0.00 | 0.00 | 0.00 | 63 | 1016.4 |
| 20260906132626 | 83 | 151 | 6.0 | 7.0 | 0.00 | 0.00 | 0.00 | 64 | 1016.4 |
| 20260906132122 | 83 | 157 | 7.0 | 8.0 | 0.00 | 0.00 | 0.00 | 64 | 1016.3 |
| 20260906131618 | 83 | 189 | 6.0 | 7.0 | 0.00 | 0.00 | 0.00 | 64 | 1016.3 |
| 20260906131113 | 82 | 168 | 3.0 | 4.0 | 0.00 | 0.00 | 0.00 | 66 | 1016.3 |
| 20260906130608 | 81 | 145 | 4.0 | 5.0 | 0.00 | 0.00 | 0.00 | 67 | 1016.1 |
| 20260906130103 | 80 | 141 | 4.0 | 5.0 | 0.00 | 0.00 | 0.00 | 69 | 1016.0 |
| 20260906125601 | 80 | 137 | 4.0 | 4.0 | 0.00 | 0.00 | 0.00 | 69 | 1016.2 |
| 20260906125100 | 80 | 131 | 3.0 | 4.0 | 0.00 | 0.00 | 0.00 | 68 | 1016.1 |
| 20260906124555 | 79 | 113 | 2.0 | 5.0 | 0.00 | 0.00 | 0.00 | 70 | 1016.0 |
| 20260906124051 | 78 | 139 | 5.0 | 5.0 | 0.00 | 0.00 | 0.00 | 71 | 1016.1 |
| 20260906123550 | 78 | 140 | 2.0 | 4.0 | 0.00 | 0.00 | 0.00 | 71 | 1016.2 |
| 20260906123045 | 78 | 118 | 1.0 | 4.0 | 0.00 | 0.00 | 0.00 | 71 | 1015.9 |
| 20260906122544 | 78 | 143 | 2.0 | 2.0 | 0.00 | 0.00 | 0.00 | 71 | 1015.9 |
| 20260906122041 | 77 | 130 | 2.0 | 2.0 | 0.00 | 0.00 | 0.00 | 72 | 1015.9 |
| 20260906121536 | 77 | 134 | 3.0 | 4.0 | 0.00 | 0.00 | 0.00 | 73 | 1015.7 |
| 20260906121032 | 76 | 140 | 3.0 | 4.0 | 0.00 | 0.00 | 0.00 | 73 | 1015.8 |
| 20260906120527 | 76 | 137 | 3.0 | 4.0 | 0.00 | 0.00 | 0.00 | 75 | 1015.6 |
| 20260906120025 | 76 | 154 | 2.0 | 2.0 | 0.00 | 0.00 | 0.00 | 75 | 1015.7 |
| 20260906115524 | 76 | 141 | 1.0 | 3.0 | 0.00 | 0.00 | 0.00 | 74 | 1015.8 |
| 20260906115019 | 77 | 96 | 2.0 | 3.0 | 0.00 | 0.00 | 0.00 | 73 | 1015.8 |
| 20260906114514 | 76 | 63 | 2.0 | 2.0 | 0.00 | 0.00 | 0.00 | 74 | 1015.6 |
| 20260906114010 | 76 | 150 | 2.0 | 3.0 | 0.00 | 0.00 | 0.00 | 74 | 1015.5 |
| 20260906113508 | 76 | 87 | 1.0 | 2.0 | 0.00 | 0.00 | 0.00 | 75 | 1015.5 |
| 20260906113004 | 76 | 122 | 2.0 | 5.0 | 0.00 | 0.00 | 0.00 | 74 | 1015.5 |
| 20260906112459 | 76 | 136 | 3.0 | 7.0 | 0.00 | 0.00 | 0.00 | 75 | 1015.6 |
| 20260906111955 | 76 | 149 | 3.0 | 5.0 | 0.00 | 0.00 | 0.00 | 74 | 1015.6 |
| 20260906111454 | 76 | 132 | 6.0 | 8.0 | 0.00 | 0.00 | 0.00 | 74 | 1015.3 |
| 20260906110949 | 77 | 135 | 3.0 | 3.0 | 0.00 | 0.00 | 0.00 | 73 | 1015.5 |
| 20260906110444 | 77 | 145 | 3.0 | 3.0 | 0.00 | 0.00 | 0.00 | 73 | 1015.2 |
| 20260906105943 | 76 | 143 | 1.0 | 3.0 | 0.00 | 0.00 | 0.00 | 75 | 1015.2 |
| 20260906105439 | 76 | 149 | 1.0 | 2.0 | 0.00 | 0.00 | 0.00 | 75 | 1015.3 |
| 20260906104936 | 76 | 141 | 2.0 | 2.0 | 0.00 | 0.00 | 0.00 | 74 | 1015.2 |
| 20260906104434 | 76 | 135 | 1.0 | 2.0 | 0.00 | 0.00 | 0.00 | 73 | 1015.3 |
| 20260906103933 | 77 | 156 | 1.0 | 2.0 | 0.00 | 0.00 | 0.00 | 73 | 1015.1 |
| 20260906103432 | 77 | 146 | 1.0 | 2.0 | 0.00 | 0.00 | 0.00 | 73 | 1015.2 |
| 20260906102927 | 76 | 144 | 2.0 | 2.0 | 0.00 | 0.00 | 0.00 | 74 | 1015.3 |
| 20260906102426 | 76 | 182 | 1.0 | 1.0 | 0.00 | 0.00 | 0.00 | 74 | 1015.3 |
| 20260906101921 | 76 | 154 | 1.0 | 2.0 | 0.00 | 0.00 | 0.00 | 74 | 1015.2 |
| 20260906101417 | 76 | 138 | 2.0 | 3.0 | 0.00 | 0.00 | 0.00 | 75 | 1015.2 |
| 20260906100912 | 76 | 131 | 3.0 | 3.0 | 0.00 | 0.00 | 0.00 | 74 | 1015.2 |
| 20260906100411 | 76 | 128 | 2.0 | 2.0 | 0.00 | 0.00 | 0.00 | 74 | 1014.7 |
| 20260906095906 | 77 | 169 | 1.0 | 2.0 | 0.00 | 0.00 | 0.00 | 72 | 1014.9 |
| 20260906095402 | 77 | 152 | 1.0 | 2.0 | 0.00 | 0.00 | 0.00 | 73 | 1014.9 |
| 20260906094901 | 78 | 142 | 2.0 | 3.0 | 0.00 | 0.00 | 0.00 | 71 | 1014.7 |
| 20260906094356 | 78 | 116 | 1.0 | 2.0 | 0.00 | 0.00 | 0.00 | 71 | 1014.9 |
| 20260906093853 | 78 | 104 | 2.0 | 3.0 | 0.00 | 0.00 | 0.00 | 72 | 1015.2 |
| 20260906093349 | 78 | 109 | 2.0 | 3.0 | 0.00 | 0.00 | 0.00 | 72 | 1015.2 |
| 20260906092843 | 78 | 116 | 2.0 | 3.0 | 0.00 | 0.00 | 0.00 | 71 | 1015.1 |
| 20260906092343 | 78 | 137 | 1.0 | 2.0 | 0.00 | 0.00 | 0.00 | 71 | 1014.9 |
| 20260906091838 | 78 | 122 | 2.0 | 3.0 | 0.00 | 0.00 | 0.00 | 71 | 1015.2 |
| 20260906091335 | 77 | 122 | 0.0 | 1.0 | 0.00 | 0.00 | 0.00 | 72 | 1015.1 |
| 20260906090831 | 78 | 143 | 1.0 | 2.0 | 0.00 | 0.00 | 0.00 | 71 | 1015.2 |
| 20260906090330 | 79 | 190 | 1.0 | 2.0 | 0.00 | 0.00 | 0.00 | 70 | 1014.9 |
| 20260906085830 | 79 | 169 | 1.0 | 2.0 | 0.00 | 0.00 | 0.00 | 70 | 1015.1 |
| 20260906085330 | 79 | 157 | 2.0 | 2.0 | 0.00 | 0.00 | 0.00 | 69 | 1014.9 |
| 20260906084825 | 80 | 106 | 1.0 | 2.0 | 0.00 | 0.00 | 0.00 | 69 | 1014.9 |
| 20260906084324 | 80 | 138 | 2.0 | 3.0 | 0.00 | 0.00 | 0.00 | 67 | 1014.8 |
| 20260906083819 | 80 | 132 | 1.0 | 2.0 | 0.00 | 0.00 | 0.00 | 67 | 1014.6 |
| 20260906083315 | 80 | 202 | 2.0 | 2.0 | 0.00 | 0.00 | 0.00 | 68 | 1014.7 |
| 20260906082814 | 80 | 152 | 1.0 | 3.0 | 0.00 | 0.00 | 0.00 | 66 | 1014.9 |
| 20260906082309 | 80 | 96 | 2.0 | 4.0 | 0.00 | 0.00 | 0.00 | 66 | 1015.1 |
| 20260906081805 | 80 | 103 | 2.0 | 2.0 | 0.00 | 0.00 | 0.00 | 66 | 1014.8 |
| 20260906081301 | 80 | 119 | 1.0 | 2.0 | 0.00 | 0.00 | 0.00 | 66 | 1014.9 |
| 20260906080758 | 80 | 170 | 3.0 | 4.0 | 0.00 | 0.00 | 0.00 | 65 | 1014.7 |
| 20260906080254 | 80 | 173 | 2.0 | 3.0 | 0.00 | 0.00 | 0.00 | 65 | 1014.7 |
| 20260906075753 | 82 | 248 | 2.0 | 4.0 | 0.00 | 0.00 | 0.00 | 64 | 1014.8 |
| 20260906075253 | 81 | 163 | 4.0 | 4.0 | 0.00 | 0.00 | 0.00 | 63 | 1014.7 |
| 20260906074748 | 81 | 223 | 3.0 | 3.0 | 0.00 | 0.00 | 0.00 | 65 | 1014.8 |
| 20260906074247 | 82 | 223 | 1.0 | 2.0 | 0.00 | 0.00 | 0.00 | 62 | 1014.8 |
| 20260906073742 | 82 | 123 | 2.0 | 5.0 | 0.00 | 0.00 | 0.00 | 62 | 1014.7 |
| 20260906073242 | 81 | 133 | 4.0 | 5.0 | 0.00 | 0.00 | 0.00 | 63 | 1014.9 |
| 20260906072738 | 81 | 86 | 2.0 | 4.0 | 0.00 | 0.00 | 0.00 | 63 | 1014.8 |
| 20260906072233 | 82 | 135 | 2.0 | 2.0 | 0.00 | 0.00 | 0.00 | 63 | 1014.7 |
| 20260906071729 | 81 | 102 | 2.0 | 3.0 | 0.00 | 0.00 | 0.00 | 64 | 1014.9 |
| 20260906071229 | 81 | 109 | 3.0 | 3.0 | 0.00 | 0.00 | 0.00 | 64 | 1015.1 |
| 20260906070726 | 81 | 112 | 1.0 | 2.0 | 0.00 | 0.00 | 0.00 | 65 | 1015.2 |
| 20260906070221 | 82 | 87 | 2.0 | 3.0 | 0.00 | 0.00 | 0.00 | 62 | 1015.1 |
| 20260906065720 | 81 | 66 | 3.0 | 3.0 | 0.00 | 0.00 | 0.00 | 63 | 1015.2 |
| 20260906065216 | 82 | 112 | 1.0 | 3.0 | 0.00 | 0.00 | 0.00 | 62 | 1014.7 |
| 20260906064711 | 81 | 142 | 2.0 | 3.0 | 0.00 | 0.00 | 0.00 | 64 | 1015.1 |
| 20260906064207 | 81 | 159 | 2.0 | 3.0 | 0.00 | 0.00 | 0.00 | 63 | 1015.1 |
| 20260906063701 | 81 | 141 | 2.0 | 4.0 | 0.00 | 0.00 | 0.00 | 65 | 1014.8 |
| 20260906063157 | 81 | 136 | 2.0 | 3.0 | 0.00 | 0.00 | 0.00 | 65 | 1015.3 |
| 20260906062653 | 81 | 142 | 2.0 | 4.0 | 0.00 | 0.00 | 0.00 | 64 | 1015.1 |
| 20260906062151 | 79 | 153 | 2.0 | 3.0 | 0.00 | 0.00 | 0.00 | 68 | 1015.3 |
| 20260906061648 | 80 | 145 | 2.0 | 2.0 | 0.00 | 0.00 | 0.00 | 67 | 1015.4 |
| 20260906061148 | 81 | 135 | 0.0 | 1.0 | 0.00 | 0.00 | 0.00 | 65 | 1015.3 |
| 20260906060645 | 80 | 39 | 1.0 | 2.0 | 0.00 | 0.00 | 0.00 | 65 | 1015.2 |
| 20260906060142 | 80 | 304 | 0.0 | 0.0 | 0.00 | 0.00 | 0.00 | 66 | 1014.9 |
| 20260906055637 | 80 | 230 | 0.0 | 2.0 | 0.00 | 0.00 | 0.00 | 66 | 1015.2 |
| 20260906055132 | 80 | 217 | 0.0 | 1.0 | 0.00 | 0.00 | 0.00 | 65 | 1015.2 |
| 20260906054627 | 81 | 255 | 0.0 | 2.0 | 0.00 | 0.00 | 0.00 | 64 | 1014.9 |
| 20260906054122 | 82 | 96 | 0.0 | 3.0 | 0.00 | 0.00 | 0.00 | 63 | 1015.2 |
| 20260906053619 | 81 | 130 | 2.0 | 4.0 | 0.00 | 0.00 | 0.00 | 63 | 1014.9 |
| 20260906053114 | 82 | 111 | 2.0 | 3.0 | 0.00 | 0.00 | 0.00 | 62 | 1015.2 |
| 20260906052609 | 81 | 143 | 2.0 | 2.0 | 0.00 | 0.00 | 0.00 | 63 | 1015.1 |
| 20260906052106 | 82 | 111 | 1.0 | 1.0 | 0.00 | 0.00 | 0.00 | 62 | 1015.2 |
| 20260906051601 | 82 | 53 | 1.0 | 2.0 | 0.00 | 0.00 | 0.00 | 62 | 1014.9 |
| 20260906051057 | 82 | 64 | 0.0 | 1.0 | 0.00 | 0.00 | 0.00 | 62 | 1014.8 |
| 20260906050552 | 82 | 93 | 2.0 | 3.0 | 0.00 | 0.00 | 0.00 | 62 | 1014.9 |
| 20260906050047 | 82 | 102 | 4.0 | 4.0 | 0.00 | 0.00 | 0.00 | 61 | 1014.9 |
| 20260906045545 | 82 | 93 | 2.0 | 2.0 | 0.00 | 0.00 | 0.00 | 61 | 1014.9 |
| 20260906045041 | 82 | 71 | 2.0 | 4.0 | 0.00 | 0.00 | 0.00 | 61 | 1015.1 |
| 20260906044536 | 83 | 93 | 2.0 | 3.0 | 0.00 | 0.00 | 0.00 | 60 | 1014.8 |
| 20260906044032 | 84 | 104 | 6.0 | 6.0 | 0.00 | 0.00 | 0.00 | 58 | 1015.1 |
| 20260906043527 | 83 | 99 | 4.0 | 4.0 | 0.00 | 0.00 | 0.00 | 60 | 1014.9 |
| 20260906043024 | 83 | 112 | 2.0 | 2.0 | 0.00 | 0.00 | 0.00 | 60 | 1014.8 |
| 20260906042522 | 83 | 126 | 1.0 | 2.0 | 0.00 | 0.00 | 0.00 | 60 | 1015.1 |
| 20260906042017 | 83 | 151 | 1.0 | 2.0 | 0.00 | 0.00 | 0.00 | 59 | 1015.1 |
| 20260906041514 | 83 | 154 | 2.0 | 3.0 | 0.00 | 0.00 | 0.00 | 59 | 1015.2 |
| 20260906041013 | 84 | 136 | 4.0 | 5.0 | 0.00 | 0.00 | 0.00 | 58 | 1014.9 |
| 20260906040508 | 84 | 107 | 3.0 | 4.0 | 0.00 | 0.00 | 0.00 | 58 | 1015.1 |
| 20260906040004 | 84 | 100 | 4.0 | 5.0 | 0.00 | 0.00 | 0.00 | 58 | 1014.8 |
| 20260906035458 | 83 | 103 | 5.0 | 6.0 | 0.00 | 0.00 | 0.00 | 58 | 1015.1 |
| 20260906034954 | 84 | 106 | 3.0 | 5.0 | 0.00 | 0.00 | 0.00 | 57 | 1014.8 |
| 20260906034454 | 84 | 103 | 3.0 | 6.0 | 0.00 | 0.00 | 0.00 | 57 | 1014.8 |
| 20260906033949 | 84 | 96 | 6.0 | 6.0 | 0.00 | 0.00 | 0.00 | 57 | 1014.8 |
| 20260906033444 | 83 | 98 | 6.0 | 7.0 | 0.00 | 0.00 | 0.00 | 58 | 1014.7 |
| 20260906032940 | 83 | 104 | 3.0 | 5.0 | 0.00 | 0.00 | 0.00 | 59 | 1014.7 |
| 20260906032437 | 82 | 109 | 5.0 | 6.0 | 0.00 | 0.00 | 0.00 | 60 | 1014.6 |
| 20260906031930 | 83 | 92 | 4.0 | 6.0 | 0.00 | 0.00 | 0.00 | 58 | 1014.8 |
| 20260906031426 | 84 | 107 | 4.0 | 6.0 | 0.00 | 0.00 | 0.00 | 58 | 1014.6 |
| 20260906030921 | 84 | 106 | 4.0 | 6.0 | 0.00 | 0.00 | 0.00 | 57 | 1014.6 |
| 20260906030415 | 84 | 127 | 4.0 | 5.0 | 0.00 | 0.00 | 0.00 | 56 | 1014.7 |
| 20260906025910 | 84 | 108 | 3.0 | 4.0 | 0.00 | 0.00 | 0.00 | 57 | 1014.6 |
| 20260906025404 | 85 | 134 | 2.0 | 5.0 | 0.00 | 0.00 | 0.00 | 56 | 1014.5 |
| 20260906024903 | 86 | 111 | 2.0 | 3.0 | 0.00 | 0.00 | 0.00 | 55 | 1014.3 |
| 20260906024402 | 86 | 91 | 2.0 | 5.0 | 0.00 | 0.00 | 0.00 | 55 | 1014.4 |
| 20260906023857 | 86 | 92 | 2.0 | 2.0 | 0.00 | 0.00 | 0.00 | 55 | 1014.5 |
| 20260906023354 | 86 | 93 | 1.0 | 2.0 | 0.00 | 0.00 | 0.00 | 55 | 1014.3 |
| 20260906022854 | 86 | 107 | 0.0 | 2.0 | 0.00 | 0.00 | 0.00 | 54 | 1014.4 |
| 20260906022349 | 87 | 44 | 2.0 | 3.0 | 0.00 | 0.00 | 0.00 | 53 | 1014.2 |
| 20260906021845 | 86 | 48 | 4.0 | 4.0 | 0.00 | 0.00 | 0.00 | 55 | 1014.3 |
| 20260906021344 | 86 | 32 | 6.0 | 7.0 | 0.00 | 0.00 | 0.00 | 55 | 1014.0 |
| 20260906020840 | 86 | 49 | 0.0 | 1.0 | 0.00 | 0.00 | 0.00 | 54 | 1013.9 |
| 20260906020339 | 86 | 37 | 0.0 | 1.0 | 0.00 | 0.00 | 0.00 | 54 | 1013.9 |
| 20260906015834 | 85 | 86 | 2.0 | 2.0 | 0.00 | 0.00 | 0.00 | 56 | 1013.6 |
| 20260906015333 | 86 | 122 | 2.0 | 3.0 | 0.00 | 0.00 | 0.00 | 56 | 1013.9 |
| 20260906014832 | 86 | 137 | 2.0 | 2.0 | 0.00 | 0.00 | 0.00 | 55 | 1013.5 |
| 20260906014327 | 88 | 125 | 2.0 | 2.0 | 0.00 | 0.00 | 0.00 | 53 | 1013.7 |
| 20260906013824 | 89 | 110 | 1.0 | 3.0 | 0.00 | 0.00 | 0.00 | 51 | 1013.6 |
| 20260906013319 | 89 | 123 | 2.0 | 3.0 | 0.00 | 0.00 | 0.00 | 50 | 1013.6 |
| 20260906012815 | 88 | 136 | 2.0 | 4.0 | 0.00 | 0.00 | 0.00 | 51 | 1013.5 |
| 20260906012314 | 87 | 105 | 4.0 | 6.0 | 0.00 | 0.00 | 0.00 | 52 | 1013.5 |
| 20260906011809 | 90 | 111 | 0.0 | 1.0 | 0.00 | 0.00 | 0.00 | 48 | 1013.6 |
| 20260906011309 | 90 | 104 | 0.0 | 2.0 | 0.00 | 0.00 | 0.00 | 47 | 1013.4 |
| 20260906010805 | 91 | 115 | 1.0 | 2.0 | 0.00 | 0.00 | 0.00 | 46 | 1013.4 |
| 20260906010301 | 93 | 49 | 0.0 | 2.0 | 0.00 | 0.00 | 0.00 | 44 | 1013.4 |
| 20260906005756 | 93 | 58 | 2.0 | 3.0 | 0.00 | 0.00 | 0.00 | 44 | 1013.4 |
| 20260906005255 | 94 | 56 | 1.0 | 2.0 | 0.00 | 0.00 | 0.00 | 43 | 1013.5 |
| 20260906004754 | 94 | 48 | 2.0 | 3.0 | 0.00 | 0.00 | 0.00 | 43 | 1013.6 |
| 20260906004249 | 94 | 38 | 2.0 | 3.0 | 0.00 | 0.00 | 0.00 | 43 | 1013.4 |
| 20260906003749 | 95 | 40 | 3.0 | 4.0 | 0.00 | 0.00 | 0.00 | 42 | 1013.5 |
| 20260906003245 | 95 | 28 | 3.0 | 4.0 | 0.00 | 0.00 | 0.00 | 41 | 1013.4 |
| 20260906002741 | 95 | 42 | 2.0 | 5.0 | 0.00 | 0.00 | 0.00 | 41 | 1013.5 |
| 20260906002240 | 96 | 51 | 2.0 | 4.0 | 0.00 | 0.00 | 0.00 | 41 | 1013.3 |
| 20260906001736 | 96 | 51 | 4.0 | 5.0 | 0.00 | 0.00 | 0.00 | 40 | 1013.5 |
| 20260906001231 | 97 | 53 | 2.0 | 4.0 | 0.00 | 0.00 | 0.00 | 40 | 1013.4 |
| 20260906000726 | 97 | 53 | 2.0 | 4.0 | 0.00 | 0.00 | 0.00 | 39 | 1013.4 |
| 20260906000221 | 98 | 35 | 3.0 | 5.0 | 0.00 | 0.00 | 0.00 | 38 | 1013.4 |
| 20260905235720 | 98 | 57 | 2.0 | 5.0 | 0.00 | 0.00 | 0.00 | 38 | 1013.4 |
| 20260905235215 | 99 | 78 | 2.0 | 4.0 | 0.00 | 0.00 | 0.00 | 36 | 1013.4 |
| 20260905234711 | 99 | 29 | 3.0 | 4.0 | 0.00 | 0.00 | 0.00 | 36 | 1013.3 |
| 20260905234206 | 99 | 95 | 2.0 | 4.0 | 0.00 | 0.00 | 0.00 | 36 | 1013.4 |
| 20260905233701 | 99 | 80 | 3.0 | 4.0 | 0.00 | 0.00 | 0.00 | 36 | 1013.3 |
| 20260905233201 | 99 | 60 | 2.0 | 4.0 | 0.00 | 0.00 | 0.00 | 36 | 1013.3 |
| 20260905232656 | 99 | 100 | 4.0 | 5.0 | 0.00 | 0.00 | 0.00 | 36 | 1013.3 |
| 20260905232152 | 99 | 83 | 2.0 | 4.0 | 0.00 | 0.00 | 0.00 | 37 | 1013.4 |
| 20260905231647 | 99 | 34 | 4.0 | 5.0 | 0.00 | 0.00 | 0.00 | 37 | 1013.4 |
| 20260905231143 | 99 | 47 | 4.0 | 5.0 | 0.00 | 0.00 | 0.00 | 36 | 1013.5 |
| 20260905230638 | 100 | 96 | 4.0 | 8.0 | 0.00 | 0.00 | 0.00 | 36 | 1013.3 |
| 20260905230136 | 99 | 257 | 0.0 | 3.0 | 0.00 | 0.00 | 0.00 | 36 | 1013.3 |
| 20260905225636 | 99 | 76 | 5.0 | 7.0 | 0.00 | 0.00 | 0.00 | 37 | 1013.3 |
| 20260905225137 | 99 | 87 | 2.0 | 10.0 | 0.00 | 0.00 | 0.00 | 37 | 1013.1 |
| 20260905224636 | 100 | 123 | 6.0 | 6.0 | 0.00 | 0.00 | 0.00 | 37 | 1013.1 |
| 20260905224136 | 99 | 124 | 4.0 | 6.0 | 0.00 | 0.00 | 0.00 | 37 | 1013.1 |
| 20260905223633 | 101 | 68 | 2.0 | 3.0 | 0.00 | 0.00 | 0.00 | 36 | 1013.1 |
| 20260905223129 | 100 | 116 | 0.0 | 4.0 | 0.00 | 0.00 | 0.00 | 36 | 1013.2 |
| 20260905222625 | 102 | 193 | 1.0 | 4.0 | 0.00 | 0.00 | 0.00 | 35 | 1013.2 |
| 20260905222119 | 101 | 229 | 2.0 | 6.0 | 0.00 | 0.00 | 0.00 | 36 | 1013.2 |
| 20260905221615 | 101 | 279 | 5.0 | 7.0 | 0.00 | 0.00 | 0.00 | 36 | 1013.4 |
| 20260905221111 | 101 | 287 | 3.0 | 4.0 | 0.00 | 0.00 | 0.00 | 36 | 1013.3 |
| 20260905220607 | 99 | 341 | 1.0 | 4.0 | 0.00 | 0.00 | 0.00 | 38 | 1013.4 |
| 20260905220103 | 100 | 227 | 5.0 | 8.0 | 0.00 | 0.00 | 0.00 | 37 | 1013.5 |
| 20260905215602 | 100 | 71 | 4.0 | 6.0 | 0.00 | 0.00 | 0.00 | 36 | 1013.4 |
| 20260905215058 | 100 | 84 | 2.0 | 8.0 | 0.00 | 0.00 | 0.00 | 37 | 1013.6 |
| 20260905214554 | 100 | 47 | 4.0 | 6.0 | 0.00 | 0.00 | 0.00 | 37 | 1013.4 |
| 20260905214048 | 100 | 118 | 4.0 | 8.0 | 0.00 | 0.00 | 0.00 | 37 | 1013.8 |
| 20260905213543 | 99 | 27 | 6.0 | 10.0 | 0.00 | 0.00 | 0.00 | 37 | 1013.7 |
| 20260905213040 | 100 | 32 | 5.0 | 13.0 | 0.00 | 0.00 | 0.00 | 37 | 1013.7 |
| 20260905212540 | 100 | 13 | 6.0 | 13.0 | 0.00 | 0.00 | 0.00 | 37 | 1013.5 |
| 20260905212039 | 100 | 59 | 2.0 | 10.0 | 0.00 | 0.00 | 0.00 | 37 | 1013.8 |
| 20260905211534 | 102 | 279 | 3.0 | 5.0 | 0.00 | 0.00 | 0.00 | 36 | 1013.9 |
| 20260905211030 | 101 | 326 | 1.0 | 6.0 | 0.00 | 0.00 | 0.00 | 36 | 1013.9 |
| 20260905210526 | 100 | 295 | 6.0 | 11.0 | 0.00 | 0.00 | 0.00 | 36 | 1013.9 |
| 20260905210025 | 100 | 4 | 3.0 | 4.0 | 0.00 | 0.00 | 0.00 | 37 | 1014.2 |
| 20260905205525 | 100 | 31 | 4.0 | 6.0 | 0.00 | 0.00 | 0.00 | 38 | 1014.2 |
| 20260905205024 | 98 | 341 | 2.0 | 5.0 | 0.00 | 0.00 | 0.00 | 39 | 1014.6 |
| 20260905204519 | 97 | 29 | 9.0 | 10.0 | 0.00 | 0.00 | 0.00 | 40 | 1014.5 |
| 20260905204014 | 97 | 49 | 4.0 | 10.0 | 0.00 | 0.00 | 0.00 | 40 | 1014.5 |
| 20260905203509 | 98 | 337 | 5.0 | 5.0 | 0.00 | 0.00 | 0.00 | 39 | 1014.5 |
| 20260905203004 | 97 | 354 | 3.0 | 8.0 | 0.00 | 0.00 | 0.00 | 40 | 1014.4 |
| 20260905202500 | 97 | 19 | 10.0 | 11.0 | 0.00 | 0.00 | 0.00 | 40 | 1014.7 |
| 20260905201955 | 99 | 26 | 9.0 | 10.0 | 0.00 | 0.00 | 0.00 | 39 | 1014.8 |
| 20260905201450 | 101 | 27 | 5.0 | 10.0 | 0.00 | 0.00 | 0.00 | 37 | 1014.7 |
| 20260905200949 | 103 | 45 | 2.0 | 4.0 | 0.00 | 0.00 | 0.00 | 35 | 1014.7 |
| 20260905200446 | 101 | 273 | 6.0 | 10.0 | 0.00 | 0.00 | 0.00 | 36 | 1014.8 |
| 20260905195944 | 101 | 315 | 4.0 | 9.0 | 0.00 | 0.00 | 0.00 | 36 | 1014.8 |
| 20260905195439 | 101 | 299 | 2.0 | 9.0 | 0.00 | 0.00 | 0.00 | 37 | 1014.9 |
| 20260905194935 | 100 | 21 | 8.0 | 8.0 | 0.00 | 0.00 | 0.00 | 37 | 1015.1 |
| 20260905194434 | 100 | 33 | 3.0 | 7.0 | 0.00 | 0.00 | 0.00 | 37 | 1015.3 |
| 20260905193929 | 99 | 11 | 4.0 | 9.0 | 0.00 | 0.00 | 0.00 | 39 | 1015.1 |
| 20260905193424 | 99 | 38 | 2.0 | 5.0 | 0.00 | 0.00 | 0.00 | 39 | 1014.9 |
| 20260905192919 | 97 | 43 | 8.0 | 10.0 | 0.00 | 0.00 | 0.00 | 41 | 1015.4 |
| 20260905192415 | 97 | 310 | 7.0 | 12.0 | 0.00 | 0.00 | 0.00 | 42 | 1015.2 |
| 20260905191915 | 99 | 311 | 11.0 | 15.0 | 0.00 | 0.00 | 0.00 | 39 | 1015.5 |
| 20260905191414 | 99 | 14 | 6.0 | 10.0 | 0.00 | 0.00 | 0.00 | 40 | 1015.5 |
| 20260905190908 | 101 | 27 | 0.0 | 4.0 | 0.00 | 0.00 | 0.00 | 38 | 1015.4 |
| 20260905190406 | 98 | 325 | 5.0 | 6.0 | 0.00 | 0.00 | 0.00 | 40 | 1015.6 |
| 20260905185905 | 97 | 33 | 4.0 | 9.0 | 0.00 | 0.00 | 0.00 | 40 | 1015.6 |
| 20260905185400 | 99 | 53 | 3.0 | 7.0 | 0.00 | 0.00 | 0.00 | 39 | 1015.7 |
| 20260905184859 | 99 | 203 | 4.0 | 6.0 | 0.00 | 0.00 | 0.00 | 40 | 1016.0 |
| 20260905184358 | 99 | 311 | 6.0 | 6.0 | 0.00 | 0.00 | 0.00 | 40 | 1016.1 |
| 20260905183856 | 98 | 309 | 0.0 | 3.0 | 0.00 | 0.00 | 0.00 | 41 | 1016.1 |
| 20260905183352 | 98 | 157 | 5.0 | 7.0 | 0.00 | 0.00 | 0.00 | 42 | 1015.9 |
| 20260905182847 | 97 | 33 | 5.0 | 10.0 | 0.00 | 0.00 | 0.00 | 42 | 1016.3 |
| 20260905182341 | 98 | 24 | 6.0 | 9.0 | 0.00 | 0.00 | 0.00 | 41 | 1016.3 |
| 20260905181837 | 99 | 289 | 4.0 | 5.0 | 0.00 | 0.00 | 0.00 | 41 | 1016.3 |
| 20260905181337 | 98 | 340 | 0.0 | 2.0 | 0.00 | 0.00 | 0.00 | 41 | 1016.4 |
| 20260905180835 | 97 | 297 | 9.0 | 14.0 | 0.00 | 0.00 | 0.00 | 42 | 1016.4 |
| 20260905180331 | 97 | 7 | 5.0 | 7.0 | 0.00 | 0.00 | 0.00 | 42 | 1016.5 |